Location: *
(46.1006°N, 1.8394°E)
Time: 07:47:57
(UTC+00:00)

SJ-11-01 - Pass Details

Date: 20 September 2019
Orbit: 684 x 701 km, 98.0° (Epoch: 14 October)

Event Time Altitude Azimuth Distance (km) Brightness Sun altitude
Exits shadow 19:16:32 - 163° (SSE) 2,561 6.9 -14.7°
Reaches altitude 10° 19:17:31 10° 163° (SSE) 2,161 6.5 -14.9°
Maximum altitude 19:22:16 85° 77° (ENE) 710 4.2 -15.7°
Drops below altitude 10° 19:27:03 10° 348° (NNW) 2,173 7.3 -16.5°
Sets 19:29:18 0° 348° (NNW) 3,093 8.1 -16.8°
